• En España
  • Lista de países
  • Para 7 días
  • Temperatura del agua
  • Mapa Satelital
  • El tiempo en el mapa
  • Informadores
  • user-avatar
    Iniciar sesión

    Tiempo cada hora Soelden

    Hoy, 21 Enero, Domingo

    Tiempo Temperatura Precipitaciones Viento Presión Humedad
    00:00 -12°C° 1,2 mm 2 mps 568 mmHg 93%
    01:00 -9°C° 0 mm 1 mps 568 mmHg 93%
    02:00 -8°C° 1 mm 1 mps 568 mmHg 93%
    03:00 -8°C° 1 mm 1 mps 568 mmHg 93%
    04:00 -9°C° 1 mm 2 mps 569 mmHg 93%
    05:00 -8°C° 0,9 mm 2 mps 569 mmHg 92%
    06:00 -8°C° 0,9 mm 2 mps 570 mmHg 92%
    07:00 -9°C° 0 mm 3 mps 571 mmHg 92%
    08:00 -9°C° 0,5 mm 3 mps 571 mmHg 90%
    09:00 -9°C° 0,5 mm 3 mps 572 mmHg 89%
    10:00 -8°C° 0,5 mm 3 mps 572 mmHg 87%
    11:00 -8°C° 0,2 mm 3 mps 573 mmHg 84%
    12:00 -8°C° 0,2 mm 3 mps 573 mmHg 81%
    13:00 -9°C° 0 mm 4 mps 574 mmHg 78%
    14:00 -9°C° 0,1 mm 3 mps 574 mmHg 78%
    15:00 -10°C° 0,1 mm 3 mps 574 mmHg 79%
    16:00 -12°C° 0,1 mm 3 mps 575 mmHg 79%
    17:00 -13°C° 0 mm 3 mps 574 mmHg 80%
    18:00 -15°C° 0 mm 3 mps 574 mmHg 81%
    19:00 -16°C° 0 mm 3 mps 574 mmHg 82%
    20:00 -15°C° 0,1 mm 2 mps 574 mmHg 82%
    21:00 -15°C° 0,1 mm 2 mps 574 mmHg 82%
    22:00 -14°C° 0,1 mm 2 mps 575 mmHg 82%
    23:00 -14°C° 0,3 mm 2 mps 575 mmHg 83%

    Mañana, 22 Enero, Lunes

    Tiempo Temperatura Precipitaciones Viento Presión Humedad
    00:00 -13°C° 0,3 mm 2 mps 575 mmHg 84%
    01:00 -10°C° 0,3 mm 1 mps 576 mmHg 85%
    02:00 -9°C° 0,9 mm 1 mps 576 mmHg 86%
    03:00 -10°C° 0,9 mm 2 mps 575 mmHg 88%
    04:00 -9°C° 0,9 mm 2 mps 575 mmHg 89%
    05:00 -9°C° 1,5 mm 2 mps 575 mmHg 90%
    06:00 -9°C° 1,5 mm 2 mps 575 mmHg 91%
    07:00 -8°C° 1,5 mm 2 mps 575 mmHg 92%
    08:00 -7°C° 1,3 mm 1 mps 576 mmHg 91%
    09:00 -6°C° 1,3 mm 1 mps 576 mmHg 91%
    10:00 -4°C° 1,3 mm 1 mps 577 mmHg 91%
    11:00 -3°C° 0,6 mm 1 mps 577 mmHg 91%
    12:00 -2°C° 0,6 mm 1 mps 577 mmHg 92%
    13:00 -2°C° 0,6 mm 1 mps 577 mmHg 92%
    14:00 -2°C° 0,8 mm 1 mps 577 mmHg 92%
    15:00 -2°C° 0,8 mm 1 mps 577 mmHg 92%
    16:00 -2°C° 0,8 mm 1 mps 577 mmHg 92%
    17:00 -5°C° 0,4 mm 2 mps 577 mmHg 92%
    18:00 -5°C° 0,4 mm 2 mps 577 mmHg 93%
    19:00 -6°C° 0,4 mm 2 mps 577 mmHg 93%
    20:00 -6°C° 0,2 mm 2 mps 578 mmHg 92%
    21:00 -6°C° 0,2 mm 2 mps 578 mmHg 92%
    22:00 -6°C° 0,2 mm 2 mps 579 mmHg 91%
    23:00 -7°C° 0 mm 2 mps 579 mmHg 91%

    Pasado mañana, 23 Enero, Martes

    Tiempo Temperatura Precipitaciones Viento Presión Humedad
    00:00 -8°C° 0 mm 2 mps 579 mmHg 90%
    01:00 -9°C° 0 mm 2 mps 579 mmHg 89%
    02:00 -9°C° 0 mm 2 mps 579 mmHg 88%
    03:00 -10°C° 0 mm 2 mps 579 mmHg 87%
    04:00 -10°C° 0 mm 2 mps 579 mmHg 86%
    05:00 -10°C° 0 mm 2 mps 579 mmHg 85%
    06:00 -12°C° 0 mm 2 mps 579 mmHg 85%
    07:00 -12°C° 0 mm 2 mps 580 mmHg 84%
    08:00 -9°C° 0 mm 2 mps 581 mmHg 84%
    09:00 -8°C° 0 mm 2 mps 582 mmHg 83%
    10:00 -7°C° 0 mm 2 mps 583 mmHg 83%
    11:00 -5°C° 0 mm 2 mps 583 mmHg 83%
    12:00 -4°C° 0 mm 2 mps 584 mmHg 84%
    13:00 -3°C° 0 mm 2 mps 584 mmHg 85%
    14:00 -3°C° 0 mm 2 mps 584 mmHg 85%
    15:00 -2°C° 0 mm 1 mps 584 mmHg 86%
    16:00 -2°C° 0 mm 1 mps 584 mmHg 86%
    17:00 -4°C° 0 mm 1 mps 583 mmHg 83%
    18:00 -7°C° 0 mm 1 mps 583 mmHg 79%
    19:00 -9°C° 0 mm 2 mps 583 mmHg 76%
    20:00 -8°C° 0 mm 1 mps 583 mmHg 74%
    21:00 -8°C° 0 mm 1 mps 583 mmHg 72%
    22:00 -9°C° 0 mm 1 mps 583 mmHg 70%
    23:00 -8°C° 0 mm 1 mps 584 mmHg 69%

    24 Enero, Miércoles

    Tiempo Temperatura Precipitaciones Viento Presión Humedad
    00:00 -8°C° 0 mm 1 mps 584 mmHg 68%
    01:00 -8°C° 0 mm 1 mps 584 mmHg 66%
    02:00 -8°C° 0 mm 1 mps 584 mmHg 65%
    03:00 -8°C° 0 mm 1 mps 584 mmHg 63%
    04:00 -8°C° 0 mm 1 mps 584 mmHg 62%
    05:00 -8°C° 0 mm 1 mps 584 mmHg 61%
    06:00 -8°C° 0 mm 1 mps 584 mmHg 61%
    07:00 -8°C° 0 mm 1 mps 584 mmHg 60%
    08:00 -7°C° 0 mm 1 mps 585 mmHg 63%
    09:00 -4°C° 0 mm 1 mps 586 mmHg 67%
    10:00 -2°C° 0 mm 1 mps 586 mmHg 70%
    11:00 -2°C° 0 mm 1 mps 587 mmHg 75%
    12:00 -3°C° 0 mm 2 mps 587 mmHg 79%
    13:00 -2°C° 0 mm 2 mps 587 mmHg 84%
    14:00 -2°C° 0 mm 2 mps 586 mmHg 84%
    15:00 -3°C° 0 mm 2 mps 586 mmHg 85%
    16:00 -4°C° 0 mm 2 mps 585 mmHg 85%
    17:00 -5°C° 0 mm 2 mps 585 mmHg 83%
    18:00 -7°C° 0 mm 2 mps 584 mmHg 82%
    19:00 -8°C° 0 mm 2 mps 584 mmHg 80%
    20:00 -8°C° 0 mm 2 mps 583 mmHg 79%
    21:00 -8°C° 0 mm 2 mps 583 mmHg 77%
    22:00 -9°C° 0 mm 2 mps 583 mmHg 76%
    23:00 -9°C° 0 mm 2 mps 583 mmHg 75%

    25 Enero, Jueves

    Tiempo Temperatura Precipitaciones Viento Presión Humedad
    00:00 -9°C° 0 mm 2 mps 583 mmHg 75%
    01:00 -9°C° 0 mm 2 mps 582 mmHg 74%
    02:00 -9°C° 0 mm 2 mps 582 mmHg 74%
    03:00 -9°C° 0 mm 2 mps 582 mmHg 74%
    04:00 -9°C° 0 mm 2 mps 581 mmHg 74%
    05:00 -9°C° 0 mm 2 mps 581 mmHg 74%
    06:00 -9°C° 0 mm 2 mps 581 mmHg 75%
    07:00 -9°C° 0 mm 2 mps 581 mmHg 75%
    08:00 -8°C° 0 mm 2 mps 581 mmHg 76%
    09:00 -7°C° 0 mm 2 mps 582 mmHg 78%
    10:00 -6°C° 0 mm 2 mps 582 mmHg 79%
    11:00 -5°C° 0 mm 2 mps 582 mmHg 81%
    12:00 -4°C° 0 mm 2 mps 582 mmHg 83%
    13:00 -4°C° 0 mm 3 mps 582 mmHg 85%
    14:00 -4°C° 0 mm 2 mps 582 mmHg 87%
    15:00 -4°C° 0 mm 2 mps 581 mmHg 89%
    16:00 -4°C° 0 mm 2 mps 581 mmHg 90%
    17:00 -5°C° 0 mm 2 mps 580 mmHg 91%
    18:00 -6°C° 0 mm 2 mps 580 mmHg 92%
    19:00 -6°C° 0 mm 2 mps 579 mmHg 93%
    20:00 -7°C° 0 mm 2 mps 579 mmHg 93%
    21:00 -7°C° 0 mm 2 mps 579 mmHg 93%
    22:00 -7°C° 0 mm 2 mps 579 mmHg 93%
    23:00 -7°C° 0,1 mm 2 mps 579 mmHg 93%

    26 Enero, Viernes

    Tiempo Temperatura Precipitaciones Viento Presión Humedad
    00:00 -7°C° 0,1 mm 2 mps 579 mmHg 93%
    01:00 -7°C° 0,1 mm 2 mps 578 mmHg 93%
    02:00 -7°C° 0,1 mm 2 mps 578 mmHg 93%
    03:00 -7°C° 0,1 mm 2 mps 578 mmHg 93%
    04:00 -7°C° 0,1 mm 2 mps 578 mmHg 93%
    05:00 -7°C° 0,2 mm 2 mps 578 mmHg 93%
    06:00 -7°C° 0,2 mm 2 mps 578 mmHg 93%
    07:00 -6°C° 0,2 mm 2 mps 578 mmHg 94%
    08:00 -6°C° 0,4 mm 2 mps 578 mmHg 93%
    09:00 -5°C° 0,4 mm 2 mps 578 mmHg 93%
    10:00 -5°C° 0,4 mm 2 mps 579 mmHg 93%
    11:00 -4°C° 0,5 mm 2 mps 579 mmHg 93%
    12:00 -4°C° 0,5 mm 2 mps 579 mmHg 93%
    13:00 -2°C° 0,5 mm 1 mps 579 mmHg 94%
    14:00 -2°C° 0,8 mm 1 mps 579 mmHg 94%
    15:00 -2°C° 0,8 mm 1 mps 579 mmHg 95%
    16:00 -2°C° 0,8 mm 1 mps 579 mmHg 95%
    17:00 -3°C° 1,1 mm 1 mps 579 mmHg 96%
    18:00 -3°C° 1,1 mm 1 mps 579 mmHg 96%
    19:00 -4°C° 1,1 mm 1 mps 579 mmHg 96%
    20:00 -4°C° 1,7 mm 1 mps 580 mmHg 96%
    21:00 -6°C° 1,7 mm 2 mps 580 mmHg 95%
    22:00 -7°C° 1,7 mm 2 mps 580 mmHg 95%
    23:00 -7°C° 1,8 mm 2 mps 580 mmHg 95%
    Mostrar más